Find Himawari 2

NORAD ID: 12677 Int'l Des: 1981-076 Owner: NASDA Country: J operational
HEOCIRCULAR

Live-Position

3D-Globus wird geladen...

Über Himawari 2

Beschreibung wird geladen...

Nächste Überflüge

Passes for default location (London). Set your location on the main map for personalized predictions.

Höhenverlauf

Loading altitude history...

Zweizeiliger Elementsatz

1 12677U 81076A 26104.46947266 -.00000340 00000-0 00000+0 0 9999
2 12677 8.1192 304.6032 0011207 334.1704 221.5556 0.99555261131594
Epoch: 14. Apr. 2026 • Age: 13 hours

Aktueller Status

Höhe 35960.9 km
Geschwindigkeit 3.07 km/s
Subsatellitenpunkt 3.99°N, 127.15°E
Startdatum 10. Aug. 1981
Alter 44.6 years
Typ weather

Technische Details

Klassifizierung Payload
Masse 300.00 kg
Trockenmasse 284.00 kg
Gesamtmasse 653.00 kg
Länge 3.50 m
Durchmesser 2.20 m
Spannweite 3.50 m
Form Cyl
Hersteller NEC/HSES
Bus-Typ HS-378
Phasenstatus In Orbit
Besitzer/Staat NASDA/J

Most Searched